This demonstration page uses our WeatherBlox Daily Observations layout. Learn more.

Left ArrowRight Arrow

Hourly Observations for May 15, 2017

Temp ( °F °C ) Dew Point ( °F °C ) Humidity (%) Winds ( mph kmh ) Pressure ( in mb ) Visibility ( mi km ) Precip ( " mm )
12:53 am 00:53 Clear 62 16.7 60 15.6 93 93 Calm 29.96 1015 10 16 0.00 0.00
1:53 am 01:53 Clear 60 15.6 59 15 96 96 Calm 29.96 1015 10 16 0.00 0.00
2:53 am 02:53 Clear 59 15 59 15 100 100 Calm 29.97 1015 10 16 0.00 0.00
3:53 am 03:53 Clear 58 14.4 57 13.9 97 97 Calm 29.97 1015 10 16 0.00 0.00
4:53 am 04:53 Clear 57 13.9 57 13.9 100 100 Calm 29.97 1015 10 16 0.00 0.00
5:53 am 05:53 Clear 57 13.9 57 13.9 100 100 Calm 29.98 1015 10 16 0.00 0.00
6:53 am 06:53 Sunny 56 13.3 56 13.3 100 100 Calm 30.00 1016 9 14 0.00 0.00
7:53 am 07:53 Sunny 62 16.7 60 15.6 93 93 Calm 30.02 1017 10 16 0.00 0.00
8:53 am 08:53 Sunny 68 20 62 16.7 81 81 Calm 30.02 1017 10 16 0.00 0.00
9:53 am 09:53 Sunny 76 24.4 63 17.2 64 64 Calm 30.03 1017 10 16 0.00 0.00
10:53 am 10:53 Sunny 81 27.2 61 16.1 51 51 W 6 9 30.03 1017 10 16 0.00 0.00
11:53 am 11:53 Sunny 82 27.8 59 15 46 46 NNW 7 11 30.02 1017 10 16 0.00 0.00
12:53 pm 12:53 Sunny 83 28.3 59 15 44 44 NNE 7 11 30.00 1016 10 16 0.00 0.00
1:53 pm 13:53 Sunny 85 29.4 59 15 42 42 VRB 3 6 29.98 1015 10 16 0.00 0.00
2:53 pm 14:53 Sunny 86 30 58 14.4 39 39 NW 5 7 29.96 1015 10 16 0.00 0.00
3:53 pm 15:53 Sunny 87 30.6 58 14.4 37 37 NW 3 6 29.94 1014 10 16 0.00 0.00
4:53 pm 16:53 Sunny 87 30.6 56 13.3 35 35 VRB 5 7 29.93 1014 10 16 0.00 0.00
5:53 pm 17:53 Sunny 86 30 58 14.4 39 39 VRB 3 6 29.93 1014 10 16 0.00 0.00
6:53 pm 18:53 Partly Cloudy 85 29.4 59 15 42 42 W 3 6 29.94 1014 10 16 0.00 0.00
7:53 pm 19:53 Partly Cloudy 84 28.9 58 14.4 41 41 W 3 6 29.95 1014 10 16 0.00 0.00
8:53 pm 20:53 Clear 80 26.7 61 16.1 52 52 Calm 29.96 1015 10 16 0.00 0.00
9:53 pm 21:53 Clear 75 23.9 62 16.7 64 64 Calm 29.97 1015 10 16 0.00 0.00
10:53 pm 22:53 Clear 71 21.7 63 17.2 76 76 Calm 29.98 1015 10 16 0.00 0.00
11:53 pm 23:53 Clear 69 20.6 63 17.2 81 81 Calm 29.99 1016 10 16 0.00 0.00

Powered by AerisWeather